Temp_Advection
nan nan nan nan nan nan nan nan nan nan nan nan nan nan nan nan nan nan nan nan nan nan nan nan nan nan nan nan nan nan nan nan nan nan nan nan nan nan nan nan nan nan nan nan nan nan nan nan nan
nan 0 0 -0 0 0 -0 -0 0 -0 -0 0 -0 -0 -0 -0 -0 0 0 0 0 -0 -0 0 0 0 0 -0 -0 -0 -0 -0 -0 -0 -0 -0 -0 0 0 -0 -0 -0 -0 0 0 0 -0 -0 nan
nan -0 -0 0 0 -0 -0 0 -0 -0 -0 -0 -0 -0 -0 -0 -0 -0 -0 -0 0 -0 -0 -0 -0 -0 -0 0 -0 -0 -0 -0 -0 -0 -0 -0 -0 0 -0 0 -0 -0 0 0 0 -0 -0 -0 nan
nan 0 -0 0 -0 -0 -0 -0 -0 -0 -0 -1 -1 -0 -0 -0 -0 -0 -0 0 -0 0 0 0 0 -0 -0 0 0 -0 -0 -0 0 -0 -0 -0 -0 0 0 0 0 0 -0 -0 -0 -0 -0 -0 nan
nan -0 0 0 0 0 -0 -0 -0 -0 -0 -0 -0 -0 -0 0 -0 -0 -0 0 -0 0 0 0 0 0 0 0 0 -0 -0 -0 -0 0 0 -0 -0 -0 -0 0 0 -0 -0 0 0 -0 -0 -0 nan
nan -0 0 0 -0 0 -0 -0 -1 -1 -0 -0 -0 -0 -0 1 0 -0 0 0 0 -0 0 0 0 0 0 0 0 0 -0 -0 -0 0 0 0 -0 -0 -0 0 0 0 0 0 -0 -0 -0 0 nan
nan 0 -0 -0 -0 0 -0 -1 -0 -0 -0 -0 -1 -0 -0 0 0 -0 -0 0 0 -0 -0 0 0 0 0 0 0 0 0 0 0 0 0 0 0 -0 -0 0 0 0 -0 -0 0 -0 0 0 nan
nan -0 -0 -0 0 -0 0 -0 -0 -0 -0 -0 -1 -0 -0 -0 0 0 0 0 0 -0 -0 -0 0 0 0 0 0 0 0 0 0 0 0 0 -0 -0 -0 0 0 0 0 -0 -0 0 -0 -0 nan
nan 0 -0 0 -0 0 0 -0 -0 -0 -0 0 0 -0 -1 -1 -0 -0 -0 0 0 0 -0 -0 -0 0 -0 0 0 0 0 0 0 0 0 0 0 0 -0 -0 0 0 -0 -0 0 -0 -0 0 nan
nan 0 -0 0 -1 -0 0 -0 -0 -0 -1 -0 1 1 0 -0 -0 -0 -1 -1 -0 -0 0 -0 0 0 0 0 0 0 0 0 0 0 0 0 0 0 -0 -0 -0 -0 0 0 0 -0 0 0 nan
nan -0 -0 -0 -1 -1 -0 -0 -0 -1 -0 -1 -2 -0 0 0 -0 -0 -1 -1 -0 -0 -0 -0 0 0 0 0 -0 0 0 0 0 0 0 0 0 0 0 -0 0 0 0 0 -0 -0 0 -0 nan
nan -0 -0 -1 -0 -1 -1 -1 -0 -0 -1 -1 -1 -2 -1 -0 -1 -0 -0 -0 -0 -0 -0 -0 -0 0 0 0 -0 -0 0 0 -0 0 0 0 0 0 -0 -0 0 -0 0 -0 -0 -0 -0 -0 nan
nan -1 -0 0 0 -1 -1 -0 -1 0 -0 0 0 -0 -1 -1 -0 -0 0 -0 -0 -0 -0 -0 0 0 0 -0 -0 -0 0 0 -0 0 0 0 0 0 0 -0 -0 0 0 -0 -0 0 -0 -0 nan
nan -0 -0 0 -0 -0 -1 0 -0 -0 0 0 0 -0 -0 -1 -0 -0 -1 -1 -0 -0 -0 -0 0 0 0 0 0 0 0 0 0 -0 0 0 0 0 0 -0 -0 0 0 -0 -0 -0 0 0 nan
nan -0 -0 -0 -0 -0 -1 0 0 0 1 0 1 0 0 -0 -1 -1 -0 -0 -0 -0 -0 -0 0 0 0 0 0 0 0 0 0 0 0 0 -0 -0 0 0 -0 -0 -0 -0 -0 -0 0 0 nan
nan 0 0 -0 -0 -0 -0 0 -0 -0 -0 -0 -0 -0 -0 -0 -0 0 0 0 0 0 0 0 0 -0 0 -0 0 0 0 0 0 0 0 -0 -0 -0 0 -0 -0 -0 -0 0 -0 -0 -0 0 nan
nan -0 -0 -0 -0 0 0 -0 0 -1 -1 -1 -1 -0 -0 -0 -0 -0 0 0 0 0 0 0 0 0 0 0 0 0 0 0 -0 0 -0 -0 -0 -0 -0 -0 -0 -0 -0 -0 -0 -0 -0 0 nan
nan -0 -0 -0 -0 -0 -0 0 0 -0 -1 -0 -0 -0 -0 -1 -1 0 0 0 0 0 0 0 0 0 0 0 0 0 0 -0 -0 0 -0 -0 -0 -0 0 -0 -0 -0 -0 -0 -0 -0 -0 -0 nan
nan -0 -0 0 0 0 0 0 0 0 0 -1 -1 -1 -0 -1 -0 1 -0 0 0 0 0 0 0 0 0 0 0 0 -0 -0 -0 -0 -0 -0 0 -0 0 -0 -0 -0 -0 -0 -0 -0 -0 -0 nan
nan 0 0 -0 0 0 0 0 0 0 0 -0 -1 -1 -0 -0 -0 -0 -0 -0 -0 -0 0 0 0 1 0 0 0 -0 0 0 0 -0 -0 0 0 0 0 -0 -0 -0 -0 0 -0 -0 -0 -0 nan
nan -0 -0 -0 -0 -0 -0 -0 0 0 0 0 0 0 0 -1 -0 -1 -0 0 0 0 0 0 0 1 0 0 0 0 0 -0 -1 -0 -0 0 0 0 0 -0 -0 -0 -0 0 0 -0 -0 -0 nan
nan -0 -0 0 -0 0 -0 -0 -0 0 0 0 0 0 0 -0 -0 0 1 -0 0 -0 0 1 1 1 0 0 0 -0 -0 -0 -0 0 0 0 0 0 -0 -0 -0 -0 0 -0 0 0 -0 -0 nan
nan -0 0 -0 -0 -0 0 -0 0 -0 -0 -0 0 0 -0 -0 1 2 -1 0 0 0 1 1 0 0 0 0 0 -0 -0 -0 0 0 0 0 -0 -0 -0 -0 -0 -0 0 -0 -0 0 -0 -0 nan
nan -0 -1 -0 0 -0 0 0 -0 -0 -0 -0 -0 -0 -0 -0 1 0 -1 1 0 0 1 1 0 0 0 0 0 -0 -0 0 0 -0 0 0 -0 -0 -0 -0 -0 0 0 0 0 0 -0 -0 nan
nan -0 -0 0 0 0 0 0 -1 -0 -0 -0 -1 -1 -1 -0 0 -1 -1 0 -0 -0 1 0 -0 0 0 0 -0 -0 0 0 -0 -0 -0 -0 -0 -0 0 0 0 0 0 0 0 0 -0 -0 nan
nan -0 0 -0 0 0 -0 -0 -0 -0 -0 -1 -0 0 0 0 -0 -1 -1 0 -1 0 0 -0 -0 0 0 0 -0 0 -0 -0 -0 -0 0 -0 -0 0 0 -0 0 0 -0 0 0 0 0 0 nan
nan -0 -0 -0 0 0 -0 -0 -0 -0 -0 0 1 0 0 -0 -0 -0 0 -0 -1 -0 -0 0 0 0 0 0 0 0 0 -0 0 0 0 -0 -0 -0 -0 -0 0 -0 -0 0 0 0 0 0 nan
nan -0 -0 -0 -0 0 0 -0 -0 -0 -0 0 -0 -1 -0 1 1 1 1 -0 -0 0 -0 1 1 0 1 0 0 0 0 0 0 0 -0 -0 -0 -0 0 0 -0 -0 -0 0 0 0 -0 0 nan
nan 0 -0 -0 -0 0 0 0 -1 -0 -0 -0 -0 -1 1 0 -0 1 -0 -1 0 -0 0 1 1 0 1 0 0 0 0 -0 0 -0 -0 -0 -0 0 -0 -0 -0 -0 -0 0 0 -0 -0 0 nan
nan nan nan nan nan nan nan nan nan nan nan nan nan nan nan nan nan nan nan nan nan nan nan nan nan nan nan nan nan nan nan nan nan nan nan nan nan nan nan nan nan nan nan nan nan nan nan nan nan
Wind_Speed
4 9 10 3 3 4 2 2 2 2 4 10 12 10 9 11 2 5 25 17 24 24 25 26 25 26 25 25 25 24 23 21 21 20 19 19 15 15 14 11 8 6 4 3 3 3 4 4 3
5 8 4 2 4 4 3 1 4 4 13 17 18 12 11 5 8 18 21 26 24 25 25 27 27 27 27 26 25 24 22 21 21 20 19 16 15 13 10 7 4 3 4 4 5 5 4 3 3
4 7 3 3 2 3 4 3 8 14 16 5 6 11 5 5 16 24 26 26 25 26 25 27 27 27 27 26 25 23 23 22 20 18 16 14 11 8 5 4 4 5 5 5 5 6 7 7 5
7 3 1 1 3 2 5 8 11 11 14 14 12 6 7 3 12 16 26 25 25 27 26 26 27 27 26 26 25 23 22 20 18 17 14 10 8 5 3 3 5 6 6 8 10 10 9 8 6
6 3 3 3 3 2 5 9 14 4 6 11 7 5 5 5 12 19 24 24 25 25 25 26 26 26 25 24 23 22 21 19 17 15 12 8 5 4 5 6 7 9 11 12 13 12 10 8 6
2 1 3 1 2 2 6 17 14 15 18 17 14 9 6 15 18 19 22 23 22 24 24 25 24 24 23 21 20 20 19 18 16 13 11 9 8 8 9 11 14 15 17 17 14 12 10 8 9
3 3 2 2 3 4 9 17 10 15 15 6 14 6 11 18 18 19 21 23 25 24 24 24 23 22 21 19 18 17 16 16 14 11 10 11 12 13 14 15 17 18 17 15 12 10 9 10 10
3 2 2 3 4 3 14 10 19 18 5 16 16 8 8 22 20 18 19 23 24 23 22 22 22 21 20 18 17 15 15 14 13 11 11 14 15 16 15 15 15 15 14 11 10 9 10 11 12
3 2 3 3 8 5 23 11 13 5 18 3 7 16 24 25 22 19 21 25 24 23 22 23 23 22 21 19 17 16 14 13 11 12 12 14 16 16 14 12 11 9 8 7 8 9 9 10 11
4 2 3 4 16 14 18 19 15 8 10 6 18 20 29 26 23 21 24 27 26 25 25 23 22 22 20 20 18 13 13 12 12 14 14 14 15 14 11 8 7 7 7 6 6 8 12 12 12
2 3 7 7 8 27 18 18 9 21 2 12 27 32 30 28 24 20 20 23 25 24 24 24 23 23 22 21 17 17 15 13 13 15 13 13 13 12 10 9 8 9 6 7 6 7 10 11 13
3 7 8 13 15 16 17 20 13 6 10 21 22 31 29 28 27 23 20 21 23 25 24 24 25 24 23 18 17 17 15 13 13 13 12 11 11 9 6 5 6 9 5 6 6 8 10 10 11
3 6 14 15 17 24 20 14 12 9 18 24 26 27 29 29 25 21 18 19 20 22 24 25 25 25 24 19 16 15 15 13 12 12 11 9 8 5 5 4 5 6 5 7 6 8 11 13 15
4 12 12 11 11 10 16 8 12 12 25 30 31 31 29 28 25 23 23 20 19 19 21 23 26 26 25 22 17 16 14 11 12 12 9 9 6 4 2 2 2 1 4 6 6 10 12 16 20
7 5 5 9 8 4 22 5 5 27 29 32 34 32 29 28 26 26 22 22 19 16 17 20 22 25 28 25 22 18 16 12 9 13 12 10 7 7 4 2 2 2 3 6 9 12 18 15 14
3 2 1 1 4 7 1 5 4 29 31 28 30 33 32 31 29 26 24 23 20 19 18 17 20 23 24 26 25 22 20 16 13 14 15 12 9 8 5 7 7 5 6 9 13 15 16 12 8
5 2 2 5 2 3 3 3 6 28 27 26 30 31 33 33 32 30 26 23 23 20 18 18 17 20 22 23 23 21 22 19 19 18 17 14 11 10 8 9 10 8 10 12 13 13 12 10 8
5 2 3 5 1 2 1 2 6 21 28 28 28 29 30 36 36 31 30 24 24 21 19 19 17 17 19 20 22 22 20 20 20 21 17 15 12 12 11 11 11 9 11 10 11 10 9 9 9
4 4 4 3 4 2 5 5 7 9 15 26 32 30 32 35 36 33 29 29 25 23 22 21 20 19 21 21 24 23 23 22 20 21 21 18 17 17 10 11 11 10 8 8 13 11 8 5 7
2 3 7 3 5 5 4 8 6 11 11 30 30 32 34 30 34 35 32 32 32 22 22 21 20 21 20 21 21 21 21 23 22 20 20 20 21 17 16 14 15 13 11 12 12 11 8 6 6
5 6 4 6 4 0 1 6 6 5 13 23 24 38 35 36 37 38 37 38 33 27 23 21 19 19 19 21 19 20 18 24 26 23 23 23 25 23 17 14 16 16 13 13 11 9 7 7 5
4 6 11 3 3 4 4 5 6 3 6 12 20 26 34 38 35 38 40 38 35 28 23 22 19 18 19 21 21 22 21 21 23 19 17 15 17 23 23 16 13 13 11 12 11 8 6 8 5
3 5 4 4 1 3 1 2 7 3 6 10 16 19 28 38 38 41 39 37 37 28 25 22 18 18 19 20 21 21 21 19 18 16 16 16 21 24 23 17 15 12 13 12 10 7 6 7 4
8 3 8 3 3 2 3 5 7 5 7 4 20 24 25 37 38 36 37 36 35 30 28 23 19 19 19 21 22 22 20 19 20 17 15 11 7 10 16 16 17 15 15 11 9 6 6 5 4
4 5 3 4 2 6 4 2 10 5 6 4 11 24 32 31 38 38 38 38 35 32 30 25 20 20 19 22 23 23 22 20 19 18 15 11 9 9 10 12 12 12 10 9 8 6 6 5 3
2 7 6 5 4 5 2 6 5 5 13 16 18 20 26 36 39 42 41 39 37 30 30 27 23 19 19 20 21 23 22 20 20 17 15 13 10 8 7 11 11 8 8 9 9 8 7 6 7
3 3 5 5 2 2 3 7 7 6 6 9 14 20 27 28 41 45 44 41 38 32 27 23 24 19 19 17 19 21 23 21 21 19 15 11 11 10 8 10 11 11 9 10 8 8 7 9 9
6 10 4 3 4 4 4 5 6 5 8 7 9 24 34 32 32 41 43 43 39 33 26 22 23 20 17 17 18 18 20 20 20 20 19 15 13 11 10 10 11 10 11 10 8 9 8 7 7
3 2 6 5 5 5 3 6 9 11 9 10 12 19 27 33 34 37 40 40 38 32 24 24 26 20 18 18 18 16 18 18 20 18 20 18 14 12 13 13 11 10 11 9 10 10 8 8 8
5 7 7 5 5 3 2 7 3 8 9 14 15 9 19 31 33 35 36 35 37 32 28 26 26 21 19 17 18 17 16 16 19 20 17 17 15 14 13 11 9 9 11 10 10 9 9 7 7
Wind_Direction
334 337 340 9 47 67 9 11 344 29 52 64 74 90 91 46 25 138 146 156 152 145 148 151 152 147 146 142 142 141 141 140 143 145 146 146 142 137 135 133 131 133 129 119 106 79 68 61 44
319 337 355 344 77 74 337 311 53 83 132 97 72 69 52 64 86 136 150 153 152 147 150 146 146 145 145 142 141 141 142 141 142 143 144 148 144 141 141 137 128 108 106 95 82 39 38 60 67
316 5 30 56 109 147 137 75 123 144 148 94 100 54 54 85 116 141 150 154 151 151 154 149 149 147 145 143 142 142 142 142 142 142 142 144 147 151 137 107 80 90 81 60 40 55 73 86 85
4 26 328 63 162 171 107 146 150 143 73 91 100 67 69 114 124 147 152 156 153 153 156 153 153 151 148 147 145 145 145 143 143 142 142 146 147 138 114 94 99 88 76 78 82 89 88 85 90
10 22 15 36 350 92 98 145 142 98 81 89 86 98 62 151 145 144 156 159 158 157 158 157 158 155 151 149 148 146 145 143 142 138 134 123 118 107 95 87 86 87 90 89 89 88 81 68 57
69 346 55 118 307 79 97 135 119 93 98 96 89 84 73 142 144 142 158 162 163 158 161 162 161 159 153 151 148 146 145 142 138 134 123 102 93 91 84 90 93 92 90 89 84 76 64 50 36
98 65 303 272 195 91 114 128 131 120 129 99 125 98 131 156 155 146 162 168 168 166 167 166 165 162 159 157 153 150 146 142 136 126 112 101 94 95 95 95 95 96 93 87 79 66 45 25 15
100 148 240 207 179 33 133 120 135 128 90 144 118 157 166 171 161 164 169 176 174 171 173 171 168 167 165 164 161 155 150 141 131 122 113 109 104 102 102 100 97 93 88 80 64 43 23 8 14
38 49 337 126 114 126 129 125 155 130 132 105 222 162 165 166 168 170 172 175 179 179 179 180 175 173 170 170 168 162 155 146 134 125 119 116 117 116 109 101 92 78 70 55 43 26 4 2 16
51 70 249 317 134 145 146 130 136 131 117 78 120 151 161 167 170 171 175 179 184 185 184 186 180 181 179 179 170 166 160 153 142 133 126 128 129 129 119 96 66 39 28 31 36 38 20 7 353
32 276 342 318 159 139 139 119 140 135 179 193 152 156 167 172 174 180 181 187 187 189 188 188 189 184 187 181 169 178 166 160 151 149 143 139 135 129 118 91 60 40 34 24 34 16 15 360 2
352 263 284 268 147 153 147 128 138 137 180 170 173 163 169 177 181 184 186 185 191 194 196 193 193 190 190 186 181 181 169 163 160 158 157 151 149 139 124 106 63 46 60 39 9 11 4 355 339
146 290 324 348 167 159 147 149 147 173 150 164 167 170 179 184 188 189 189 192 196 200 203 202 200 199 198 192 191 183 176 180 177 169 169 177 162 151 132 88 72 63 43 8 1 356 351 339 331
318 278 297 22 62 120 128 149 132 153 159 167 174 181 188 192 193 192 192 194 197 200 203 205 209 205 207 200 196 194 183 194 180 188 184 179 191 198 165 38 39 37 324 339 349 343 332 333 331
276 324 320 38 347 84 108 164 186 165 170 174 181 186 193 199 202 206 197 195 192 192 196 203 211 213 213 211 203 208 198 195 196 202 200 204 221 201 206 218 216 271 337 324 314 314 330 327 332
47 90 152 324 15 11 1 226 172 166 167 182 190 193 199 203 208 212 210 203 199 199 196 201 207 207 206 208 212 217 218 214 212 213 205 209 211 210 226 237 246 270 299 311 305 305 328 337 345
16 302 269 317 270 149 200 195 176 174 178 186 193 200 202 207 213 216 215 212 205 203 205 205 212 210 210 212 214 214 215 225 219 214 201 209 217 225 236 256 258 270 298 309 315 322 326 352 7
211 223 276 243 294 62 20 175 148 174 186 197 202 207 203 209 213 214 219 215 214 210 212 212 217 213 206 214 214 214 216 221 213 210 212 215 230 238 241 247 257 270 298 312 319 330 334 355 16
159 184 231 260 229 144 212 228 211 190 178 179 192 206 208 210 214 217 221 225 219 219 217 216 218 215 210 208 212 218 218 213 211 210 220 231 239 243 243 236 252 275 314 329 337 346 343 11 25
200 158 259 274 236 184 220 243 221 196 205 183 183 195 204 210 211 211 218 224 224 218 222 220 227 221 219 219 218 223 219 215 213 216 222 235 236 236 244 248 249 266 291 310 326 339 351 353 9
186 178 225 207 93 92 31 295 239 206 206 216 200 195 196 202 207 210 213 222 217 217 225 227 231 230 222 218 219 225 231 224 224 231 236 235 232 233 242 245 249 256 281 295 317 332 337 350 338
236 217 241 215 72 273 28 276 290 255 201 194 207 201 195 204 208 207 210 216 215 217 223 227 232 232 220 221 221 227 227 226 225 228 228 230 243 234 233 235 248 247 269 291 308 316 299 321 324
260 75 121 72 5 13 300 51 267 289 223 198 196 202 202 205 209 210 210 215 216 217 222 223 229 234 221 221 227 229 225 221 227 228 232 243 247 237 229 234 240 255 269 288 299 300 287 304 296
159 73 68 45 105 305 228 152 269 198 208 159 194 203 205 212 209 211 214 216 215 219 221 221 225 233 225 222 225 227 222 223 228 233 232 242 234 208 219 227 243 256 263 271 284 282 279 281 257
100 67 25 340 357 224 139 183 251 271 236 218 172 192 210 211 208 211 214 215 214 221 220 220 224 229 226 225 225 226 223 224 230 230 229 220 217 208 211 229 237 247 248 258 271 265 275 266 258
223 155 150 212 218 256 129 237 257 259 218 209 205 205 196 201 209 214 210 215 213 223 220 223 226 228 227 225 227 225 223 222 224 221 224 222 225 216 216 225 231 241 240 251 255 261 263 247 261
209 155 155 87 37 360 233 290 297 287 226 212 215 224 208 209 210 215 218 216 216 220 224 226 225 234 227 223 222 224 221 221 222 217 220 225 220 216 239 237 245 240 252 249 246 254 244 269 265
177 160 87 46 217 255 266 276 234 235 220 216 234 242 238 226 218 218 217 216 215 219 228 227 226 234 223 219 217 220 220 221 216 218 224 223 217 227 233 240 252 251 245 248 244 234 272 269 253
123 243 50 131 162 194 267 263 216 207 198 183 206 239 239 216 207 205 209 214 212 213 224 223 220 220 215 214 211 212 211 211 212 214 215 214 226 230 238 246 249 242 244 232 231 251 262 266 256
171 173 148 147 226 234 198 273 326 197 207 164 183 226 214 202 200 202 203 208 211 220 221 215 216 215 214 205 206 204 201 208 210 206 204 212 220 231 224 224 227 227 223 241 242 247 260 260 232
Height
1510 1509 1508 1508 1516 1516 1524 1517 1509 1508 1511 1512 1509 1511 1516 1518 1519 1533 1530 1532 1535 1536 1539 1540 1542 1545 1547 1549 1552 1555 1556 1557 1559 1561 1563 1565 1565 1566 1567 1568 1570 1570 1571 1571 1571 1571 1571 1570 1569
1510 1509 1509 1509 1519 1533 1528 1513 1514 1510 1512 1513 1512 1517 1518 1523 1522 1525 1530 1533 1536 1538 1541 1542 1544 1546 1548 1550 1553 1556 1558 1560 1562 1563 1565 1566 1567 1568 1569 1570 1571 1571 1572 1572 1571 1571 1571 1570 1569
1510 1509 1509 1512 1519 1529 1527 1514 1514 1514 1513 1513 1516 1520 1522 1529 1528 1529 1531 1535 1538 1540 1543 1545 1547 1549 1551 1553 1555 1558 1560 1561 1563 1565 1567 1569 1570 1570 1570 1570 1570 1571 1572 1572 1571 1570 1570 1570 1569
1510 1512 1514 1518 1516 1510 1512 1512 1512 1514 1515 1515 1518 1523 1529 1531 1531 1533 1534 1537 1540 1542 1544 1547 1549 1551 1553 1554 1556 1559 1561 1563 1564 1566 1568 1570 1571 1572 1571 1571 1570 1571 1571 1571 1571 1571 1571 1570 1570
1511 1512 1517 1518 1514 1506 1508 1509 1513 1514 1517 1520 1519 1528 1531 1533 1535 1536 1537 1540 1542 1544 1545 1549 1551 1554 1556 1558 1559 1560 1562 1564 1566 1568 1569 1571 1573 1573 1572 1571 1571 1571 1572 1572 1572 1572 1572 1572 1573
1514 1515 1523 1526 1516 1507 1508 1512 1515 1516 1520 1524 1525 1527 1535 1536 1536 1538 1540 1543 1545 1547 1549 1551 1554 1557 1559 1561 1563 1564 1565 1566 1568 1569 1571 1572 1574 1574 1573 1573 1573 1573 1573 1574 1574 1574 1573 1573 1574
1514 1517 1524 1516 1514 1512 1511 1514 1515 1517 1521 1524 1526 1530 1536 1538 1539 1540 1543 1545 1547 1549 1551 1553 1556 1559 1562 1564 1566 1567 1568 1569 1570 1571 1572 1573 1575 1575 1576 1575 1575 1575 1575 1575 1575 1575 1575 1575 1574
1513 1515 1519 1512 1515 1516 1511 1514 1518 1518 1523 1525 1525 1530 1535 1536 1539 1541 1544 1546 1549 1551 1555 1557 1559 1561 1564 1566 1568 1569 1570 1572 1572 1573 1574 1575 1577 1578 1578 1578 1578 1578 1577 1577 1577 1577 1576 1575 1575
1514 1520 1521 1511 1513 1516 1511 1515 1522 1521 1523 1526 1526 1526 1530 1535 1539 1542 1544 1547 1550 1552 1555 1557 1559 1562 1564 1567 1568 1570 1572 1573 1574 1575 1576 1577 1578 1580 1581 1580 1580 1580 1579 1578 1577 1578 1577 1576 1575
1515 1524 1515 1506 1506 1508 1510 1510 1517 1522 1524 1529 1526 1528 1531 1535 1539 1541 1543 1546 1549 1551 1555 1558 1561 1564 1566 1567 1569 1571 1573 1574 1575 1576 1577 1579 1580 1580 1582 1582 1582 1581 1580 1579 1578 1577 1576 1575 1574
1516 1516 1507 1503 1505 1507 1511 1514 1516 1520 1526 1524 1525 1529 1533 1536 1540 1543 1544 1545 1548 1551 1554 1557 1560 1564 1566 1568 1569 1571 1573 1574 1576 1577 1578 1580 1581 1582 1583 1584 1582 1581 1581 1580 1579 1577 1577 1575 1573
1516 1510 1510 1503 1506 1509 1511 1515 1517 1517 1517 1522 1525 1528 1533 1536 1538 1541 1543 1546 1548 1550 1554 1557 1560 1563 1566 1569 1571 1572 1573 1575 1576 1577 1579 1580 1582 1583 1584 1583 1583 1582 1582 1581 1579 1578 1577 1574 1573
1516 1510 1507 1504 1502 1507 1509 1511 1515 1519 1519 1524 1529 1532 1531 1534 1536 1540 1543 1546 1548 1550 1553 1556 1559 1562 1565 1568 1571 1572 1574 1576 1577 1578 1580 1581 1583 1584 1584 1584 1584 1583 1583 1582 1580 1579 1577 1574 1572
1513 1512 1509 1507 1506 1506 1510 1514 1512 1521 1521 1525 1528 1530 1532 1534 1537 1540 1541 1543 1545 1547 1551 1555 1557 1561 1564 1567 1570 1573 1575 1577 1578 1579 1580 1582 1583 1584 1585 1585 1584 1583 1583 1582 1581 1579 1577 1573 1571
1515 1515 1508 1507 1510 1511 1512 1519 1517 1516 1521 1525 1527 1531 1534 1535 1537 1536 1538 1541 1545 1546 1549 1552 1555 1559 1562 1566 1570 1572 1576 1576 1578 1579 1580 1582 1584 1585 1585 1585 1585 1583 1583 1582 1581 1579 1576 1573 1571
1516 1518 1523 1511 1512 1515 1515 1527 1515 1518 1521 1525 1528 1528 1531 1532 1533 1536 1539 1541 1544 1547 1548 1551 1553 1556 1560 1563 1568 1571 1574 1577 1577 1579 1581 1582 1583 1585 1586 1585 1585 1584 1582 1582 1580 1578 1576 1573 1571
1524 1531 1526 1518 1510 1510 1515 1521 1515 1519 1521 1523 1525 1526 1527 1529 1532 1535 1537 1539 1542 1545 1548 1549 1552 1554 1558 1562 1565 1569 1572 1575 1576 1578 1579 1581 1582 1584 1585 1585 1585 1584 1582 1581 1579 1577 1575 1573 1571
1532 1531 1526 1523 1513 1511 1515 1515 1512 1515 1518 1520 1523 1523 1526 1526 1527 1531 1536 1538 1541 1542 1546 1548 1550 1553 1556 1559 1563 1566 1570 1572 1574 1576 1577 1580 1582 1583 1584 1584 1585 1584 1582 1581 1579 1576 1574 1573 1572
1516 1521 1524 1516 1512 1513 1514 1515 1515 1512 1513 1513 1516 1519 1522 1522 1524 1529 1533 1537 1538 1540 1543 1545 1547 1550 1552 1554 1557 1561 1566 1570 1573 1575 1577 1579 1579 1581 1582 1584 1584 1584 1582 1581 1578 1576 1574 1573 1573
1519 1522 1524 1516 1511 1515 1516 1514 1509 1511 1509 1508 1509 1512 1514 1522 1523 1525 1528 1532 1534 1535 1539 1542 1544 1547 1550 1552 1555 1559 1563 1568 1572 1573 1574 1576 1577 1579 1580 1582 1583 1583 1583 1581 1578 1576 1574 1573 1573
1516 1520 1518 1518 1513 1515 1517 1520 1510 1506 1508 1507 1506 1505 1510 1514 1516 1519 1521 1526 1530 1532 1535 1538 1541 1543 1547 1550 1554 1557 1560 1564 1568 1569 1571 1572 1575 1576 1578 1580 1581 1582 1582 1580 1578 1576 1575 1573 1573
1519 1505 1505 1511 1523 1538 1521 1544 1513 1504 1504 1503 1502 1501 1505 1508 1513 1515 1516 1522 1526 1528 1532 1537 1539 1540 1544 1547 1551 1553 1557 1560 1563 1566 1569 1571 1571 1572 1576 1578 1579 1580 1580 1579 1578 1576 1576 1574 1572
1512 1501 1509 1517 1526 1531 1529 1542 1516 1505 1503 1500 1497 1498 1501 1504 1507 1509 1511 1516 1522 1525 1528 1532 1536 1538 1540 1544 1547 1550 1554 1558 1561 1564 1566 1567 1568 1568 1572 1576 1577 1578 1578 1577 1577 1576 1576 1574 1573
1505 1510 1520 1530 1539 1552 1530 1537 1517 1505 1491 1487 1490 1493 1496 1497 1501 1506 1511 1515 1519 1522 1526 1529 1532 1535 1538 1541 1544 1547 1551 1555 1558 1561 1563 1565 1566 1566 1571 1573 1575 1575 1575 1575 1575 1575 1575 1573 1573
1507 1525 1547 1556 1556 1553 1531 1538 1509 1489 1481 1480 1483 1487 1489 1493 1496 1500 1505 1510 1516 1516 1522 1526 1529 1531 1534 1538 1541 1545 1548 1552 1555 1559 1561 1564 1566 1567 1570 1571 1572 1573 1573 1573 1573 1573 1573 1572 1572
1510 1516 1548 1555 1562 1544 1532 1535 1500 1480 1477 1476 1477 1479 1479 1481 1486 1490 1497 1503 1509 1513 1519 1523 1526 1528 1531 1535 1538 1542 1546 1549 1553 1557 1560 1562 1564 1567 1568 1569 1570 1571 1571 1571 1571 1571 1572 1572 1571
1508 1518 1510 1531 1538 1545 1529 1512 1486 1477 1477 1477 1476 1477 1478 1479 1479 1482 1492 1498 1503 1509 1514 1519 1523 1527 1530 1533 1536 1539 1542 1546 1550 1554 1558 1560 1563 1565 1566 1567 1567 1568 1569 1569 1569 1570 1570 1570 1570
1492 1497 1526 1539 1549 1545 1530 1524 1511 1483 1475 1473 1475 1471 1470 1474 1477 1481 1487 1492 1499 1505 1511 1516 1520 1525 1528 1531 1533 1536 1539 1543 1548 1551 1555 1559 1562 1563 1563 1564 1566 1567 1566 1567 1567 1568 1569 1569 1569
1497 1505 1513 1516 1533 1537 1538 1522 1476 1471 1465 1467 1468 1466 1463 1467 1470 1476 1484 1490 1496 1502 1508 1513 1518 1523 1526 1528 1531 1533 1536 1541 1545 1548 1552 1556 1559 1560 1559 1562 1564 1564 1566 1566 1566 1567 1568 1568 1568
1479 1490 1501 1518 1521 1533 1528 1507 1462 1460 1458 1460 1463 1463 1462 1465 1465 1472 1481 1488 1495 1500 1506 1511 1517 1521 1524 1526 1528 1531 1535 1538 1541 1545 1550 1554 1556 1558 1559 1560 1562 1563 1565 1565 1565 1566 1566 1566 1567